Location: Indian Tree Observatory
(39.4030°N, 104.5929°W)
Time: 17:25:13
(UTC-06:00)

Envisat - Visible Passes

Search period start: 17 July 2018 00:00
Search period end: 27 July 2018 00:00
Orbit: 764 x 766 km, 98.2° (Epoch: 17 July)

Date Brightness Start Highest point End Pass type
(mag) Time Alt. Az. Time Alt. Az. Time Alt. Az.
17 Jul 4.9 20:59:34 10° SSW 21:03:58 30° W 21:08:24 10° NW visible
19 Jul 5.6 21:26:32 10° SW 21:29:45 17° W 21:32:59 10° NW visible
20 Jul 4.5 20:48:04 10° SSW 20:52:45 38° W 20:57:28 10° NNW visible
22 Jul 5.4 21:14:40 10° SW 21:18:29 21° W 21:22:20 10° NW visible
24 Jul 5.9 21:42:36 10° WSW 21:44:19 12° W 21:46:03 10° WNW visible
25 Jul 5.1 21:02:59 10° SSW 21:07:14 27° W 21:11:32 10° NW visible
